Find Starlink 35021

NORAD ID: 65282 Int'l Des: 2025-184 Owner: SPXS Country: US Constellation: starlink operational
LEOCIRCULARRETROGRADESSO

現在のビュー

3D地球を読み込み中...

About Starlink 35021

Starlink 35021 (NORAD 65282) is a starlink constellation satellite (v2 mini) launched Aug 22, 2025 by SPXS of US. It operates in LEO, CIRCULAR, RETROGRADE, SSO orbit with a mass of 575.00 kg.

次回通過

Passes for default location (London). Set your location on the main map for personalized predictions.

高度履歴

Loading altitude history...

軌道要素

1 65282U 25184K 26262.92509916 .00010146 00000-0 31621-3 0 9990
2 65282 97.2845 310.8623 0000887 108.1883 251.9457 15.33442228 60581
Epoch: Sep 19, 2026 • Age: 20 hours

現在のステータス

高度 483.3 km
遠地点 / 近地点 N/A
速度 7.62 km/s
衛星直下点 -44.53°S, 43.72°E
打ち上げ日 Aug 22, 2025
運用期間 1 year
タイプ internet

技術仕様

分類 Payload
質量 575.00 kg
乾燥質量 530.00 kg
長さ 0.30 m
スパン 29.00 m
形状 ? Box + pan
製造者 SPXS
バスタイプ Starlink V2MO
フェーズステータス In Orbit
所有者/国 SPXS/US

Most Searched